This is the latest recevied weather packets stored in our database for station/object WC4PEM-11. If no packets are shown the sender has not sent any weather packets the latest 10 day(s).
| Time | Temp. | Humidity | Pressure | Rain* | Wind** | Luminosity | Snow |
|---|---|---|---|---|---|---|---|
| 1788101289 | 28.89° C | 84% | 1018.8 hPa | 0 mm | - | - | - |
| 1788100989 | 29.44° C | 83% | 1018.7 hPa | 0 mm | - | - | - |
| 1788100689 | 29.44° C | 85% | 1018.7 hPa | 0 mm | - | - | - |
| 1788100389 | 28.89° C | 84% | 1018.8 hPa | 0 mm | - | - | - |
| 1788100089 | 28.89° C | 86% | 1018.9 hPa | 0 mm | - | - | - |
| 1788099789 | 28.89° C | 86% | 1018.9 hPa | 0 mm | - | - | - |
| 1788099489 | 28.89° C | 87% | 1018.9 hPa | 0 mm | - | - | - |
| 1788099189 | 28.33° C | 86% | 1018.7 hPa | 0 mm | - | - | - |
| 1788098889 | 28.33° C | 88% | 1018.6 hPa | 0 mm | - | - | - |
| 1788098589 | 28.33° C | 88% | 1018.6 hPa | 0 mm | - | - | - |
| 1788098289 | 27.78° C | 89% | 1018.6 hPa | 0 mm | - | - | - |
| 1788097989 | 27.78° C | 90% | 1018.5 hPa | 0 mm | - | - | - |
| 1788097689 | 27.22° C | 90% | 1018.6 hPa | 0 mm | - | - | - |
| 1788097389 | 27.22° C | 92% | 1018.6 hPa | 0 mm | - | - | - |
| 1788097246 | 26.67° C | 93% | 1018.7 hPa | 0 mm | - | - | - |
| 1788097089 | 26.67° C | 93% | 1018.7 hPa | 0 mm | - | - | - |
| 1788096789 | 26.67° C | 93% | 1018.7 hPa | 0 mm | - | - | - |
| 1788096489 | 26.67° C | 93% | 1018.7 hPa | 0 mm | - | - | - |
| 1788096189 | 26.11° C | 94% | 1018.6 hPa | 0 mm | - | - | - |
| 1788095889 | 26.11° C | 96% | 1018.6 hPa | 0 mm | - | - | - |
| 1788095589 | 26.11° C | 97% | 1018.6 hPa | 0 mm | - | - | - |
| 1788095289 | 25.56° C | 98% | 1018.5 hPa | 0 mm | - | - | - |
| 1788094989 | 25.56° C | 98% | 1018.5 hPa | 0 mm | - | - | - |
| 1788094689 | 25° C | 99% | 1018.5 hPa | 0 mm | - | - | - |
| 1788094389 | 25° C | 99% | 1018.4 hPa | 0 mm | - | - | - |
* Rain latest hour (hover to see other rain measurements)
** Current wind speed in m/s (hover to see current wind gust speed)